AAL7510 KSAN-KLAX

Flight info

Callsign AAL7510
Flight time 0h 28m
Altitude 10000
Route CWARD2 SLI
Aircraft A320/M-SDE3FGHIRWY/LB1

Departure

Time 2026-05-04 02:45
Airport San Diego International Airport (KSAN)

Arrival

Time 2026-05-04 03:14
Airport Los Angeles International Airport (KLAX)
Time Latitude Longitude Altitude Speed Heading
2026-05-04 02:24 32.73407 -117.20180 23 ft 0 kts 168°
2026-05-04 02:31 32.73418 -117.20183 26 ft 2 kts 168°
2026-05-04 02:31 32.73434 -117.20187 23 ft 2 kts 168°
2026-05-04 02:32 32.73451 -117.20190 25 ft 2 kts 168°
2026-05-04 02:32 32.73467 -117.20194 25 ft 2 kts 171°
2026-05-04 02:32 32.73478 -117.20198 25 ft 1 kts 114°
2026-05-04 02:32 32.73481 -117.20193 25 ft 0 kts 79°
2026-05-04 02:35 32.73481 -117.20192 25 ft 1 kts 79°
2026-05-04 02:35 32.73484 -117.20174 25 ft 4 kts 79°
2026-05-04 02:35 32.73492 -117.20142 28 ft 4 kts 74°
2026-05-04 02:35 32.73502 -117.20101 25 ft 6 kts 73°
2026-05-04 02:36 32.73511 -117.20049 25 ft 6 kts 88°
2026-05-04 02:36 32.73504 -117.20009 29 ft 0 kts 105°
2026-05-04 02:36 32.73501 -117.19995 28 ft 7 kts 104°
2026-05-04 02:37 32.73470 -117.19869 27 ft 24 kts 106°
2026-05-04 02:37 32.73417 -117.19667 28 ft 21 kts 106°
2026-05-04 02:37 32.73388 -117.19533 27 ft 13 kts 103°
2026-05-04 02:37 32.73365 -117.19432 27 ft 13 kts 106°
2026-05-04 02:38 32.73341 -117.19329 26 ft 13 kts 106°
2026-05-04 02:38 32.73315 -117.19224 25 ft 13 kts 107°
2026-05-04 02:38 32.73293 -117.19132 25 ft 10 kts 105°
2026-05-04 02:38 32.73276 -117.19062 27 ft 8 kts 106°
2026-05-04 02:39 32.73262 -117.19006 26 ft 6 kts 106°
2026-05-04 02:39 32.73251 -117.18959 26 ft 5 kts 105°
2026-05-04 02:39 32.73242 -117.18921 26 ft 5 kts 105°
2026-05-04 02:39 32.73221 -117.18837 28 ft 17 kts 106°
2026-05-04 02:40 32.73180 -117.18664 32 ft 21 kts 105°
2026-05-04 02:40 32.73143 -117.18510 33 ft 20 kts 106°
2026-05-04 02:40 32.73105 -117.18361 30 ft 18 kts 107°
2026-05-04 02:40 32.73072 -117.18223 30 ft 17 kts 105°
2026-05-04 02:41 32.73040 -117.18089 27 ft 17 kts 106°
2026-05-04 02:41 32.73009 -117.17962 27 ft 15 kts 106°
2026-05-04 02:41 32.72981 -117.17848 26 ft 14 kts 107°
2026-05-04 02:41 32.72951 -117.17739 26 ft 13 kts 107°
2026-05-04 02:42 32.72953 -117.17681 26 ft 0 kts 73°
2026-05-04 02:43 32.72955 -117.17676 26 ft 4 kts 73°
2026-05-04 02:44 32.72990 -117.17608 31 ft 15 kts 27°
2026-05-04 02:44 32.73042 -117.17662 28 ft 0 kts 285°
2026-05-04 02:44 32.73056 -117.17727 27 ft 31 kts 284°
2026-05-04 02:44 32.73188 -117.18278 30 ft 103 kts 285°
2026-05-04 02:45 32.73441 -117.19323 31 ft 157 kts 285°
2026-05-04 02:45 32.73747 -117.20552 682 ft 153 kts 286°
2026-05-04 02:45 32.74209 -117.21689 1431 ft 153 kts 300°
2026-05-04 02:45 32.74800 -117.22756 2021 ft 162 kts 301°
2026-05-04 02:46 32.75479 -117.23948 2354 ft 186 kts 302°
2026-05-04 02:46 32.76248 -117.25300 2751 ft 209 kts 302°
2026-05-04 02:46 32.77102 -117.26812 3197 ft 233 kts 302°
2026-05-04 02:46 32.78043 -117.28489 3756 ft 251 kts 302°
2026-05-04 02:47 32.79024 -117.30239 4656 ft 256 kts 302°
2026-05-04 02:47 32.80021 -117.32010 5584 ft 260 kts 303°
2026-05-04 02:47 32.81099 -117.33757 6468 ft 265 kts 304°
2026-05-04 02:47 32.82235 -117.35506 7286 ft 270 kts 305°
2026-05-04 02:48 32.83403 -117.37274 8125 ft 274 kts 304°
2026-05-04 02:48 32.84571 -117.39047 8937 ft 278 kts 303°
2026-05-04 02:48 32.85774 -117.40882 9669 ft 284 kts 303°
2026-05-04 02:48 32.86988 -117.42749 9916 ft 286 kts 303°
2026-05-04 02:49 32.88201 -117.44620 9981 ft 285 kts 303°
2026-05-04 02:49 32.89410 -117.46492 9985 ft 285 kts 303°
2026-05-04 02:49 32.90615 -117.48364 9988 ft 285 kts 303°
2026-05-04 02:49 32.91819 -117.50242 9990 ft 285 kts 303°
2026-05-04 02:50 32.93022 -117.52118 9989 ft 285 kts 303°
2026-05-04 02:50 32.94225 -117.53992 9987 ft 285 kts 303°
2026-05-04 02:50 32.95428 -117.55865 9986 ft 285 kts 303°
2026-05-04 02:50 32.96629 -117.57739 9981 ft 285 kts 303°
2026-05-04 02:51 32.97831 -117.59614 9988 ft 285 kts 303°
2026-05-04 02:51 32.99033 -117.61489 9987 ft 285 kts 303°
2026-05-04 02:51 33.00233 -117.63364 9987 ft 285 kts 303°
2026-05-04 02:51 33.01436 -117.65244 9987 ft 285 kts 303°
2026-05-04 02:52 33.02637 -117.67122 9984 ft 285 kts 303°
2026-05-04 02:52 33.03839 -117.69000 9985 ft 285 kts 303°
2026-05-04 02:52 33.05040 -117.70880 9983 ft 285 kts 303°
2026-05-04 02:52 33.06266 -117.72738 9991 ft 287 kts 308°
2026-05-04 02:53 33.07748 -117.74347 9987 ft 289 kts 315°
2026-05-04 02:53 33.09284 -117.75898 9984 ft 290 kts 315°
2026-05-04 02:53 33.10819 -117.77452 9986 ft 290 kts 315°
2026-05-04 02:53 33.12356 -117.79011 9985 ft 289 kts 315°
2026-05-04 02:54 33.13888 -117.80569 9986 ft 289 kts 315°
2026-05-04 02:54 33.15417 -117.82129 9985 ft 289 kts 315°
2026-05-04 02:54 33.16950 -117.83692 9986 ft 289 kts 315°
2026-05-04 02:54 33.18512 -117.85214 9982 ft 291 kts 321°
2026-05-04 02:55 33.22339 -117.86939 9987 ft 300 kts 344°
2026-05-04 02:55 33.24383 -117.87440 9983 ft 300 kts 344°
2026-05-04 02:55 33.26428 -117.87944 9981 ft 300 kts 344°
2026-05-04 02:56 33.28474 -117.88452 9981 ft 300 kts 344°
2026-05-04 02:56 33.30517 -117.88961 9981 ft 300 kts 344°
2026-05-04 02:56 33.32538 -117.89463 9980 ft 300 kts 344°
2026-05-04 02:56 33.34588 -117.89974 9906 ft 301 kts 344°
2026-05-04 02:57 33.36633 -117.90483 9779 ft 300 kts 344°
2026-05-04 02:57 33.38667 -117.91017 9645 ft 297 kts 340°
2026-05-04 02:57 33.40640 -117.91733 9517 ft 296 kts 339°
2026-05-04 02:57 33.42610 -117.92448 9397 ft 296 kts 339°
2026-05-04 02:58 33.44584 -117.93162 9268 ft 295 kts 339°
2026-05-04 02:58 33.46549 -117.93872 9134 ft 294 kts 339°
2026-05-04 02:58 33.48504 -117.94581 9014 ft 294 kts 339°
2026-05-04 02:58 33.50457 -117.95288 8880 ft 292 kts 339°
2026-05-04 02:59 33.52404 -117.95996 8755 ft 292 kts 339°
2026-05-04 02:59 33.54346 -117.96705 8626 ft 291 kts 339°
2026-05-04 02:59 33.56275 -117.97412 8502 ft 290 kts 339°
2026-05-04 02:59 33.58201 -117.98116 8379 ft 289 kts 340°
2026-05-04 03:00 33.60121 -117.98818 8241 ft 288 kts 340°
2026-05-04 03:00 33.62033 -117.99516 8121 ft 287 kts 339°
2026-05-04 03:00 33.63940 -118.00211 8013 ft 286 kts 340°
2026-05-04 03:00 33.65847 -118.00906 7880 ft 286 kts 340°
2026-05-04 03:01 33.67752 -118.01602 7760 ft 285 kts 340°
2026-05-04 03:01 33.69645 -118.02295 7633 ft 284 kts 340°
2026-05-04 03:01 33.71537 -118.02987 7509 ft 284 kts 340°
2026-05-04 03:01 33.73422 -118.03676 7385 ft 282 kts 340°
2026-05-04 03:02 33.75302 -118.04364 7209 ft 283 kts 341°
2026-05-04 03:02 33.77176 -118.05049 6947 ft 278 kts 341°
2026-05-04 03:02 33.78993 -118.05837 6874 ft 276 kts 335°
2026-05-04 03:02 33.80824 -118.06375 6508 ft 277 kts 358°
2026-05-04 03:03 33.82737 -118.06056 6098 ft 277 kts 10°
2026-05-04 03:03 33.84614 -118.05549 5668 ft 276 kts 11°
2026-05-04 03:03 33.86440 -118.04870 5302 ft 274 kts 26°
2026-05-04 03:03 33.88091 -118.03751 4993 ft 268 kts 30°
2026-05-04 03:04 33.89633 -118.02607 4961 ft 251 kts 33°
2026-05-04 03:04 33.90479 -118.01715 4957 ft 240 kts 53°
2026-05-04 03:04 33.91421 -117.99361 4964 ft 232 kts 70°
2026-05-04 03:04 33.91962 -117.97530 4972 ft 233 kts 71°
2026-05-04 03:05 33.92323 -117.96311 4971 ft 233 kts 66°
2026-05-04 03:05 33.93756 -117.94458 4971 ft 230 kts 22°
2026-05-04 03:05 33.95304 -117.94177 4969 ft 227 kts 347°
2026-05-04 03:05 33.96288 -117.94571 4965 ft 225 kts 328°
2026-05-04 03:06 33.97393 -117.95855 4965 ft 222 kts 297°
2026-05-04 03:06 33.97792 -117.97622 4968 ft 221 kts 267°
2026-05-04 03:06 33.97636 -117.99468 4970 ft 221 kts 262°
2026-05-04 03:06 33.97445 -118.01315 4968 ft 222 kts 263°
2026-05-04 03:07 33.97259 -118.03167 4966 ft 223 kts 263°
2026-05-04 03:07 33.97076 -118.05020 4967 ft 218 kts 263°
2026-05-04 03:07 33.96902 -118.06770 4961 ft 203 kts 262°
2026-05-04 03:07 33.96740 -118.08409 4906 ft 191 kts 262°
2026-05-04 03:08 33.96584 -118.09975 4718 ft 186 kts 262°
2026-05-04 03:08 33.96431 -118.11515 4482 ft 184 kts 261°
2026-05-04 03:08 33.96278 -118.13043 4243 ft 183 kts 262°
2026-05-04 03:08 33.96127 -118.14556 3999 ft 181 kts 262°
2026-05-04 03:09 33.95977 -118.16056 3759 ft 179 kts 262°
2026-05-04 03:09 33.95829 -118.17537 3525 ft 177 kts 262°
2026-05-04 03:09 33.95683 -118.18999 3293 ft 176 kts 262°
2026-05-04 03:09 33.95537 -118.20453 3058 ft 174 kts 262°
2026-05-04 03:10 33.95392 -118.21896 2827 ft 172 kts 262°
2026-05-04 03:10 33.95250 -118.23307 2598 ft 171 kts 262°
2026-05-04 03:10 33.95108 -118.24720 2413 ft 169 kts 262°
2026-05-04 03:10 33.94967 -118.26115 2150 ft 165 kts 262°
2026-05-04 03:11 33.94828 -118.27494 1917 ft 165 kts 262°
2026-05-04 03:11 33.94696 -118.28810 1724 ft 150 kts 262°
2026-05-04 03:11 33.94574 -118.30015 1494 ft 139 kts 261°
2026-05-04 03:11 33.94460 -118.31137 1322 ft 131 kts 261°
2026-05-04 03:12 33.94351 -118.32217 1144 ft 129 kts 262°
2026-05-04 03:12 33.94243 -118.33283 978 ft 128 kts 262°
2026-05-04 03:12 33.94135 -118.34343 807 ft 127 kts 263°
2026-05-04 03:12 33.94028 -118.35399 625 ft 129 kts 263°
2026-05-04 03:13 33.93919 -118.36468 461 ft 127 kts 263°
2026-05-04 03:13 33.93812 -118.37518 290 ft 126 kts 263°
2026-05-04 03:13 33.93706 -118.38559 138 ft 125 kts 264°
2026-05-04 03:13 33.93631 -118.39381 126 ft 60 kts 263°
2026-05-04 03:14 33.93612 -118.39556 126 ft 3 kts 262°
2026-05-04 03:14 33.93602 -118.39651 126 ft 18 kts 266°
2026-05-04 03:14 33.93628 -118.39839 122 ft 26 kts 287°
2026-05-04 03:14 33.93664 -118.39977 123 ft 21 kts 284°
2026-05-04 03:15 33.93654 -118.40186 126 ft 24 kts 263°
2026-05-04 03:15 33.93628 -118.40421 126 ft 32 kts 263°
2026-05-04 03:15 33.93606 -118.40651 124 ft 17 kts 263°
2026-05-04 03:15 33.93593 -118.40775 123 ft 17 kts 270°
2026-05-04 03:16 33.93609 -118.40849 122 ft 0 kts 295°
2026-05-04 03:16 33.93610 -118.40850 122 ft 0 kts 295°
2026-05-04 03:18 33.93613 -118.40857 123 ft 5 kts 297°
2026-05-04 03:19 33.93702 -118.40900 125 ft 17 kts 353°
2026-05-04 03:19 33.93790 -118.40913 124 ft 14 kts 353°
2026-05-04 03:19 33.93871 -118.40901 126 ft 2 kts 78°
2026-05-04 03:19 33.93882 -118.40769 126 ft 27 kts 83°
2026-05-04 03:20 33.93922 -118.40644 124 ft 8 kts 346°
2026-05-04 03:20 33.93970 -118.40656 123 ft 4 kts 355°